Regional Weather Roundup
Issued by NWS Wilmington, NC

Home | Current Version | Previous Version | Text Only | Print | Product List | Glossary On
Versions: 1 2 3 4 5 6 7 8 9 10 11 12 13 14 15 16 17 18 19 20 21 22 23 24 25 26 27 28
000
ASUS42 KILM 240710
RWRILM
RWRILM
REGIONAL HOURLY WEATHER ROUNDUP
NATIONAL WEATHER SERVICE WILMINGTON NC
300 AM EDT FRI OCT 24 2014

NOTE: "FAIR" INDICATES FEW OR NO CLOUDS BELOW 12,000 FEET WITH NO
SIGNIFICANT WEATHER AND/OR OBSTRUCTIONS TO VISIBILITY.

...............WFO WILMINGTON COUNTY WARNING AREA...............

......COASTAL NC AND SC COUNTIES......

CITY           SKY/WX    TMP DP  RH WIND       PRES   REMARKS
WILMINGTON     CLEAR     49  46  90 CALM      29.99S
SOUTHPORT      CLEAR     51  45  79 NW6       30.00F
N MYRTLE BEACH CLEAR     49  44  83 CALM      30.00F
MYRTLE BEACH   CLEAR     52  45  76 NW5       30.01S

......INLAND NC AND SC COUNTIES.......

CITY           SKY/WX    TMP DP  RH WIND       PRES   REMARKS
LUMBERTON      CLEAR     44  42  93 CALM      30.01F
ELIZABETHTOWN  CLEAR     52  45  76 NW3       30.01S
WHITEVILLE     CLEAR     48  45  91 CALM      30.00F
FLORENCE       CLEAR     49  43  80 NW5       30.03S
DARLINGTON     CLEAR     43  37  81 W3        30.05R

....................REST OF NORTH CAROLINA......................

.........EASTERN NC.........

CITY           SKY/WX    TMP DP  RH WIND       PRES   REMARKS
CAPE HATTERAS  CLEAR     61  49  64 NW10G18   29.94S
JACKSONVILLE   CLEAR     45  41  87 CALM      29.99S
MOREHEAD CITY  CLEAR     54  49  83 NW8       29.96F
KENANSVILLE    CLEAR     46  44  92 CALM      30.00S
NEW BERN       CLEAR     51  46  83 CALM      29.99F
ELIZABETH CITY CLEAR     53  45  74 W10       29.94S

.........CENTRAL NC.........

CITY           SKY/WX    TMP DP  RH WIND       PRES   REMARKS
RALEIGH DURHAM CLOUDY    49  41  74 NE5       30.00S
ROCKY MOUNT    PTCLDY    50  43  77 NW3       29.98F
ROANOKE RAPIDS NOT AVBL
FAYETTEVILLE   CLEAR     49  43  80 W6        30.01S
HOFFMAN        CLEAR     44  43  96 NW2       30.04S

.........WESTERN NC.........

CITY           SKY/WX    TMP DP  RH WIND       PRES   REMARKS
CHARLOTTE      MOCLDY    45  41  86 CALM      30.06R
GREENSBORO     CLOUDY    48  40  73 NW3       30.03R
HICKORY        NOT AVBL
BOONE          NOT AVBL
ASHEVILLE      NOT AVBL

.....................REST OF SOUTH CAROLINA.....................

.........EASTERN SC.........

CITY           SKY/WX    TMP DP  RH WIND       PRES   REMARKS
CHARLESTON     PTCLDY    51  46  83 CALM      30.01F
BEAUFORT MCAS  MOCLDY    50  47  89 W3        30.02S
HILTON HEAD    NOT AVBL

.........CENTRAL SC.........

CITY           SKY/WX    TMP DP  RH WIND       PRES   REMARKS
COLUMBIA       MOCLDY    47  43  86 CALM      30.02F
ORANGEBURG     CLOUDY    50  45  83 CALM      30.02F
SUMTER SHAW    MOCLDY    51  44  78 NE6       30.02F

.........WESTERN SC.........

CITY           SKY/WX    TMP DP  RH WIND       PRES   REMARKS
GREENVILLE     NOT AVBL
ROCK HILL      PTCLDY    44  42  93 CALM      30.05F
ANDERSON       MOCLDY    48  45  89 CALM      30.04S
CLEMSON        NOT AVBL
GREENWOOD      CLOUDY    47  45  93 CALM      30.05F


...................COASTAL AND OFFSHORE REPORTS..................

................LOCAL PIERS AND NC RESERVE................


STATION/POSITION TIME  SKY/WX   TEMP    WIND        PRES    VSBY
                                AIR SEA DIR/SP/G
                 (UTC)          (F)     (DEG/KT/KT) (MB)    (MI)
JOHNY MRCER PIER 0700            56 72  310/  6/  8 1015.0R
NC RESRV MASNBRO 0600            53     200/  1     1015.0S
OCEAN CREST PIER 0700            53 69  300/  8/ 10 1014.9F
SPRINGMAID  PIER 0700            54 69  310/  7/  8 1016.1R


................COASTAL AND OFFSHORE BUOYS................


STATION/POSITION TIME  SKY/WX   TEMP    WIND        PRES    VSBY
                                AIR SEA DIR/SP/G
                 (UTC)          (F)     (DEG/KT/KT) (MB)    (MI)
DIMNDSHOAL 41025 0700            64     320/ 19/ 21 1013.7F
WVE H/P(F/S)=  4/ 7 WND WVE H/P(F/S)=  5/ 7

CAPE LOOKOUT     0600            60     340/ 10/ 11 1014.7F
ONSLOW BAY 41036 0700            66 75   10/ 14/ 16 1014.2S
WVE H/P(F/S)=  4/11 WND WVE H/P(F/S)=  2/ 5 SWL H/P/D(F/S/D)=  3/110/11

5 WRITEBCH 41038 0700            58 72  360/ 14/ 16   N/A
MASONBORO  41110 0700               72                N/A
WVE H/P(F/S)=  3/10 WND WVE H/P(F/S)=  2/10 SWL H/P/D(F/S/D)=  2/100/11

WILM HARBR 41108 0700               71                N/A
WVE H/P(F/S)=  2/12 WND WVE H/P(F/S)=  2/10 SWL H/P/D(F/S/D)=  2/130/12

27WRITEBCH 41037 0600            64 74  360/ 16/ 19 1014.8F
FRYING PAN 41013 0700            66 74  330/ 14/ 17 1016.1F
WVE H/P(F/S)=  3/12 WND WVE H/P(F/S)=  2/ 5 SWL H/P/D(F/S/D)=  2/100/12

SUNST NRSH 41024 0600            58     320/ 12/ 12 1016.0R
CAPRS NRSH 41029 NOT AVBL
EDISTO     41004 0700            68 78  340/ 10/ 14 1015.6F
WVE H/P(F/S)=  3/11 WND WVE H/P(F/S)=  2/ 3 SWL H/P/D(F/S/D)=  2/11



..........OFFSHORE BUOYS BEYOND 100 NM OFFSHORE...........
.....IN A TRIANGLE---HAT TO BERMUDA TO BAHAMAS TO HAT.....


STATION/POSITION TIME  SKY/WX   TEMP    WIND        PRES    VSBY
                                AIR SEA DIR/SP/G
                 (UTC)          (F)     (DEG/KT/KT) (MB)    (MI)
150E HAT   41001 NOT AVBL
W BERMUDA  41048 0627            74 79  280/ 17/ 23 1011.9F
WVE H/P(F/S)= 10/10 WND WVE H/P(F/S)=  7/ 8 SWL H/P/D(F/S/D)=  7/340/10

ATLANTIC S 41049 0555            81 81  210/ 10/ 12 1013.7F
WVE H/P(F/S)=  3/ 8 WND WVE H/P(F/S)=  2/ 4 SWL H/P/D(F/S/D)=  3/ 70/ 8

E BAHAMAS  41046 0640            82 84  160/ 10/ 12 1012.8F
WVE H/P(F/S)=  3/ 8 WND WVE H/P(F/S)=  2/ 4 SWL H/P/D(F/S/D)=  2/ 70/ 8

NE BAHAMAS 41047 0645            76 82   50/ 14/ 17 1012.8F
WVE H/P(F/S)=  5/ 9 WND WVE H/P(F/S)=  3/ 6 SWL H/P/D(F/S/D)=  5/350/ 9

120E CANVRL41010 0700            74 81   30/  8/ 12 1014.7F
WVE H/P(F/S)=  3/ 8 WND WVE H/P(F/S)=  2/ 4 SWL H/P/D(F/S/D)=  3/ 40/ 8


END



USA.gov is the U.S. government's official web portal to all federal, state and local government web resources and services.